Accueil
METAR-TAF:

METAR-TAF

Aéroports :

Aéroport de Nevers-Fourchambault

Nevers, France

latitude: 47-00N, longitude: 003-06E, altitude: 180 m

Observation

Le bulletin a été fait il y a 1 heure et 32 minutes, à 18:00 UTC
Vent 2 kt de direction variable
Température 14°C
Humidité 72%
Pression 1022 hPa
Visibilité 10 km ou plus
pas de nuages en-dessous de 1500 mètres et pas de cumulonimbus.

METAR: LFQG 191800Z AUTO VRB02KT CAVOK 14/09 Q1022

Heure: 21:32 (19:32 UTC)


TAF: absent

Observations et prévisions météorologiques de plus de 4000 aéroports (messages METAR et TAF).

Les stations disponibles sont représentées par des disques jaunes et rouges sur la carte.

Passer la souris dessus pour voir le nom de la station.

Cliquer dessus pour voir les observations et prévisions météorologiques.

Pour changer de carte: cliquez sur les boutons verts avec une croix noire pour zoomer, sur le bouton vert avec un tiret pour effectuer un zoom arrière, ou sur les flèches vertes pour les cartes adjacentes.


METAR-TAF: